Home   Weather   Mosul   Past weeks

Flag for Iraq Past Weather in Mosul, Iraq — Yesterday and Last 2 Weeks

Now
39 °F

Passing clouds.


Feels Like: 36 °F
Forecast: 56 / 91 °F
Wind: 5 mph from North

Location: Orumieh

Current Time: Sep 25, 2016 at 6:45:57 AM

Latest Report: Sep 25, 2016 at 6:00 AM


Visibility: N/A

Pressure: 30.04 "Hg

Humidity: 81%

Dew Point: 34 °F

Location of MosulLocation

Past Weather in Mosul — Graph

°F

Mosul Temperature Yesterday

Maximum temperature yesterday: 79 °F (at 2:00 PM)
Minimum temperature yesterday: 48 °F (at 11:00 PM)
Average temperature yesterday: 63 °F

High & Low Weather Summary for the Past Weeks

 TemperatureHumidityPressure
High88 °F (Sep 14, 1:30 PM)94% (Sep 17, 4:30 AM)30.07 "Hg (Sep 17, 4:30 AM)
Low39 °F (Sep 25, 4:30 AM)10% (Sep 15, 1:00 PM)29.80 "Hg (Sep 17, 3:00 PM)
Average67 °F47%29.94 "Hg
* Reported Sep 10 5:00 AM — Sep 25 5:00 AM, Mosul, Weather by CustomWeather, © 2016

Note: Actual official high and low records may vary slightly from our data, if they occured in-between our weather recording intervals... More about our weather records

Advertising

Mosul Weather History for the Previous 24 Hours

Scroll right to see more
 ConditionsComfort  
Time TempWeatherWind HumidityBarometerVisibility
5:00 AM
Sun, Sep 25
39 °FClear.5 mph87%30.07 "Hg10 mi
4:30 AM39 °FClear.5 mph87%30.07 "Hg10 mi
4:00 AM43 °FClear.5 mph76%30.07 "Hg10 mi
3:00 AM43 °FClear.5 mph81%30.07 "Hg10 mi
2:00 AM46 °FPassing clouds.5 mph76%30.04 "HgN/A
1:00 AM46 °FPassing clouds.5 mph76%30.04 "HgN/A
12:00 AM45 °FPassing clouds.5 mph76%30.04 "HgN/A
11:00 PM
Sat, Sep 24
48 °FPassing clouds.5 mph71%30.04 "HgN/A
10:00 PM54 °FPassing clouds.5 mph54%30.04 "HgN/A
9:30 PM52 °FPassing clouds.7 mph58%30.01 "HgN/A
9:00 PM52 °FPassing clouds.7 mph58%30.01 "HgN/A
8:30 PM54 °FPassing clouds.9 mph58%29.98 "HgN/A
8:00 PM54 °FPassing clouds.9 mph58%29.98 "HgN/A
7:00 PM55 °FPassing clouds.9 mph55%29.95 "HgN/A
6:30 PM57 °FPassing clouds.12 mph59%29.95 "HgN/A
6:00 PM57 °FPassing clouds.14 mph55%29.92 "HgN/A
5:30 PM59 °FPassing clouds.14 mph51%29.89 "Hg6 mi
5:00 PM63 °FSandstorm.16 mph49%29.86 "Hg2 mi
4:30 PM63 °FSandstorm.18 mph52%29.80 "Hg1 mi
4:00 PM68 °FSandstorm.20 mph43%29.80 "Hg1 mi
3:30 PM77 °FPassing clouds.9 mph24%29.80 "HgN/A
3:00 PM77 °FPassing clouds.9 mph24%29.80 "HgN/A
2:00 PM79 °FPassing clouds.12 mph23%29.80 "HgN/A
1:00 PM77 °FPassing clouds.14 mph21%29.80 "HgN/A
12:30 PM77 °FPassing clouds.14 mph21%29.83 "HgN/A
12:00 PM75 °FPassing clouds.16 mph24%29.83 "HgN/A
11:30 AM75 °FPassing clouds.18 mph24%29.83 "HgN/A
11:00 AM75 °FPassing clouds.16 mph22%29.83 "HgN/A
10:30 AM75 °FPassing clouds.16 mph24%29.83 "HgN/A
10:00 AM73 °FPassing clouds.14 mph31%29.86 "HgN/A
9:30 AM72 °FPassing clouds.No wind38%29.86 "HgN/A
9:00 AM68 °FPassing clouds.9 mph49%29.86 "HgN/A
8:30 AM68 °FPassing clouds.7 mph49%29.86 "HgN/A
8:00 AM66 °FPassing clouds.5 mph49%29.86 "HgN/A
7:30 AM57 °FPassing clouds.7 mph63%29.86 "HgN/A
7:00 AM55 °FPassing clouds.5 mph67%29.86 "HgN/A
6:30 AM52 °FPassing clouds.2 mph67%29.86 "HgN/A
6:00 AM52 °FPassing clouds.7 mph67%29.86 "HgN/A
Weather by CustomWeather, © 2016

See weather overviewHow to use our weather pages